Miscellaneous Local Product
Issued by NWS Hastings, NE

Home | Current Version | Previous Version | Graphics & Text | Print | Product List | Glossary On
Versions: 1 2 3 4 5 6 7 8 9 10 11 12 13 14 15 16 17 18 19 20 21 22 23 24 25 26 27 28 29 30 31 32 33 34 35 36 37 38 39 40 41 42 43 44 45 46 47 48 49 50
572
AXUS43 KGID 270502
MISGRI

GID CWA HOURLY WEATHER ROUNDUP
NATIONAL WEATHER SERVICE HASTINGS NE
1200 AM CDT TUE JUN 27 2017

NOTE: "FAIR" INDICATES FEW OR NO CLOUDS BELOW 12,000 FEET WITH NO
SIGNIFICANT WEATHER AND/OR OBSTRUCTIONS TO VISIBILITY.

...SOUTH CENTRAL NEBRASKA...

CITY           SKY/WX    TMP DP  RH WIND       PRES   REMARKS
GRAND ISLAND   PTCLDY    59  52  77 E6        30.15S
HASTINGS       CLEAR     63  59  87 SE6       30.16R
KEARNEY        CLEAR     57  50  77 E7        30.15S
ORD            CLEAR     52  46  80 CALM      30.13S
YORK           CLEAR     57  50  77 E8        30.15S
AURORA         CLEAR     57  51  81 E7        30.15S
LEXINGTON      CLEAR     62  51  68 E9        30.13F
HOLDREGE       CLEAR     60  57  90 E9        30.13S
HEBRON         CLEAR     60  59  97 CALM      30.15R

...NEBRASKA PANHANDLE...

CITY           SKY/WX    TMP DP  RH WIND       PRES   REMARKS
CHADRON        CLEAR     70  37  29 S18G36    30.01F
ALLIANCE       CLEAR     62  41  46 SE15      30.09S
SCOTTSBLUFF    CLEAR     67  43  41 SE15      30.08S
SIDNEY         CLEAR     63  54  72 SE16      30.14S

...WESTERN AND NORTH CENTRAL NEBRASKA...

CITY           SKY/WX    TMP DP  RH WIND       PRES   REMARKS
VALENTINE      CLEAR     62  38  40 SE13      30.10S
AINSWORTH      CLEAR     56  43  60 SE7       30.12S
ONEILL         CLEAR     58  45  62 SE6       30.14F
BROKEN BOW     CLEAR     57  47  69 SE7       30.14S
IMPERIAL       CLEAR     61  55  81 SE8       30.13R
NORTH PLATTE   CLEAR     56  50  80 E8        30.13S
MCCOOK         CLEAR     64  58  80 E8        30.12S

...EASTERN NEBRASKA...

CITY           SKY/WX    TMP DP  RH WIND       PRES   REMARKS
NORFOLK        CLEAR     54  44  69 SE5       30.14F
SO SIOUX CITY  CLEAR     51  46  83 CALM      30.15R
TEKAMAH        CLEAR     54  46  74 NW6       30.14S
COLUMBUS       CLEAR     54  48  80 E3        30.15S
ALBION         CLEAR     56  43  62 CALM      30.15S
OMAHA EPPLEY   CLEAR     59  50  72 NW5       30.14S
OFFUTT AFB     CLEAR     60  52  73 E5        30.14R
MILLARD        CLEAR     61  53  75 CALM      30.14S
LINCOLN        CLEAR     60  52  74 E6        30.15R
NEBRASKA CITY  CLEAR     61  61 100 SW3       30.15R
BEATRICE       CLEAR     61  60  96 CALM      30.14S
FALLS CITY     CLEAR     59  57  93 CALM      30.14R

...NORTHERN KANSAS...

CITY           SKY/WX    TMP DP  RH WIND       PRES   REMARKS
GOODLAND       CLEAR     65  62  90 E13       30.12S
HILL CITY      CLEAR     65  59  81 E9        30.12R
NORTON         CLEAR     61  54  77 E8        30.12S
PHILLIPSBURG   CLEAR     66  59  77 E7        30.12S
SMITH CENTER   CLOUDY    64  59  82 E13       30.13R
HAYS           CLEAR     66  61  84 E8        30.11R
RUSSELL        CLEAR     65  61  87 E13       30.10R
CONCORDIA      CLEAR     61  60  97 SE5       30.13R
SALINA         MOCLDY    68  61  78 E9        30.11R
TOPEKA         CLEAR     61  61 100 NE3       30.13R



USA.gov is the U.S. government's official web portal to all federal, state and local government web resources and services.